#Datum;Uhrzeit;WR;Pac;DaySum;Status;WR;Pac;DaySum;Status;Pdc1;Udc;Temp;WR;Pac;DaySum;Status;Pdc1;Udc;Temp;WR;Pac;DaySum;Status;Pdc1;Udc;Temp;WR;Pac;DaySum;Status;Pdc1;Pdc2;Udc1;Udc2;Temp;WR;Pac;DaySum;Status;Pdc1;Pdc2;Udc1;Udc2;Temp;WR;Pac;DaySum;Status;Pdc1;Udc;Temp;WR;Pac;DaySum;Status;Pdc1;Udc;Temp;WR;Pac;DaySum;Status;Pdc1;Udc;Temp
16.10.19;23:55:00;1;283;8592;0;2;0;22943;0;0;0;0;3;0;14565;0;0;0;0;4;0;20278;0;0;0;0;5;0;47280;0;0;0;0;0;0;6;0;36555;0;0;0;0;0;0;7;0;32161;0;0;0;0;8;0;31505;0;0;0;0;9;0;17018;0;0;0;0
16.10.19;23:50:00;1;249;8570;0;2;0;22943;0;0;0;0;3;0;14565;0;0;0;0;4;0;20278;0;0;0;0;5;0;47280;0;0;0;0;0;0;6;0;36555;0;0;0;0;0;0;7;0;32161;0;0;0;0;8;0;31505;0;0;0;0;9;0;17018;0;0;0;0
16.10.19;23:45:00;1;296;8549;0;2;0;22943;0;0;0;0;3;0;14565;0;0;0;0;4;0;20278;0;0;0;0;5;0;47280;0;0;0;0;0;0;6;0;36555;0;0;0;0;0;0;7;0;32161;0;0;0;0;8;0;31505;0;0;0;0;9;0;17018;0;0;0;0
16.10.19;23:40:00;1;205;8530;0;2;0;22943;0;0;0;0;3;0;14565;0;0;0;0;4;0;20278;0;0;0;0;5;0;47280;0;0;0;0;0;0;6;0;36555;0;0;0;0;0;0;7;0;32161;0;0;0;0;8;0;31505;0;0;0;0;9;0;17018;0;0;0;0
16.10.19;23:35:00;1;206;8513;0;2;0;22943;0;0;0;0;3;0;14565;0;0;0;0;4;0;20278;0;0;0;0;5;0;47280;0;0;0;0;0;0;6;0;36555;0;0;0;0;0;0;7;0;32161;0;0;0;0;8;0;31505;0;0;0;0;9;0;17018;0;0;0;0
16.10.19;23:30:00;1;207;8495;0;2;0;22943;0;0;0;0;3;0;14565;0;0;0;0;4;0;20278;0;0;0;0;5;0;47280;0;0;0;0;0;0;6;0;36555;0;0;0;0;0;0;7;0;32161;0;0;0;0;8;0;31505;0;0;0;0;9;0;17018;0;0;0;0
16.10.19;23:25:00;1;248;8478;0;2;0;22943;0;0;0;0;3;0;14565;0;0;0;0;4;0;20278;0;0;0;0;5;0;47280;0;0;0;0;0;0;6;0;36555;0;0;0;0;0;0;7;0;32161;0;0;0;0;8;0;31505;0;0;0;0;9;0;17018;0;0;0;0
16.10.19;23:20:00;1;235;8457;0;2;0;22943;0;0;0;0;3;0;14565;0;0;0;0;4;0;20278;0;0;0;0;5;0;47280;0;0;0;0;0;0;6;0;36555;0;0;0;0;0;0;7;0;32161;0;0;0;0;8;0;31505;0;0;0;0;9;0;17018;0;0;0;0
16.10.19;23:15:00;1;215;8438;0;2;0;22943;0;0;0;0;3;0;14565;0;0;0;0;4;0;20278;0;0;0;0;5;0;47280;0;0;0;0;0;0;6;0;36555;0;0;0;0;0;0;7;0;32161;0;0;0;0;8;0;31505;0;0;0;0;9;0;17018;0;0;0;0
16.10.19;23:10:00;1;254;8419;0;2;0;22943;0;0;0;0;3;0;14565;0;0;0;0;4;0;20278;0;0;0;0;5;0;47280;0;0;0;0;0;0;6;0;36555;0;0;0;0;0;0;7;0;32161;0;0;0;0;8;0;31505;0;0;0;0;9;0;17018;0;0;0;0
16.10.19;23:05:00;1;255;8398;0;2;0;22943;0;0;0;0;3;0;14565;0;0;0;0;4;0;20278;0;0;0;0;5;0;47280;0;0;0;0;0;0;6;0;36555;0;0;0;0;0;0;7;0;32161;0;0;0;0;8;0;31505;0;0;0;0;9;0;17018;0;0;0;0
16.10.19;23:00:00;1;270;8377;0;2;0;22943;0;0;0;0;3;0;14565;0;0;0;0;4;0;20278;0;0;0;0;5;0;47280;0;0;0;0;0;0;6;0;36555;0;0;0;0;0;0;7;0;32161;0;0;0;0;8;0;31505;0;0;0;0;9;0;17018;0;0;0;0
16.10.19;22:55:00;1;280;8353;0;2;0;22943;0;0;0;0;3;0;14565;0;0;0;0;4;0;20278;0;0;0;0;5;0;47280;2;0;0;0;0;0;6;0;36555;2;0;0;0;0;0;7;0;32161;0;0;0;0;8;0;31505;0;0;0;0;9;0;17018;0;0;0;0
16.10.19;22:50:00;1;320;8329;0;2;0;22943;0;0;0;0;3;0;14565;0;0;0;0;4;0;20278;0;0;0;0;5;0;47280;2;0;0;0;0;0;6;0;36555;2;0;0;0;0;0;7;0;32161;0;0;0;0;8;0;31505;0;0;0;0;9;0;17018;0;0;0;0
16.10.19;22:45:00;1;306;8302;0;2;0;22943;0;0;0;0;3;0;14565;0;0;0;0;4;0;20278;0;0;0;0;5;0;47280;2;0;0;0;0;0;6;0;36555;2;0;0;0;0;0;7;0;32161;0;0;0;0;8;0;31505;0;0;0;0;9;0;17018;0;0;0;0
16.10.19;22:40:00;1;283;8276;0;2;0;22943;0;0;0;0;3;0;14565;0;0;0;0;4;0;20278;0;0;0;0;5;0;47280;2;0;0;0;0;0;6;0;36555;2;0;0;0;0;0;7;0;32161;0;0;0;0;8;0;31505;0;0;0;0;9;0;17018;0;0;0;0
16.10.19;22:35:00;1;285;8252;0;2;0;22943;0;0;0;0;3;0;14565;0;0;0;0;4;0;20278;0;0;0;0;5;0;47280;2;0;0;0;0;0;6;0;36555;2;0;0;0;0;0;7;0;32161;0;0;0;0;8;0;31505;0;0;0;0;9;0;17018;0;0;0;0
16.10.19;22:30:00;1;286;8229;0;2;0;22943;0;0;0;0;3;0;14565;0;0;0;0;4;0;20278;0;0;0;0;5;0;47280;2;0;0;0;0;0;6;0;36555;2;0;0;0;0;0;7;0;32161;0;0;0;0;8;0;31505;0;0;0;0;9;0;17018;0;0;0;0
16.10.19;22:25:00;1;327;8204;0;2;0;22943;0;0;0;0;3;0;14565;0;0;0;0;4;0;20278;0;0;0;0;5;0;47280;2;0;0;0;0;0;6;0;36555;2;0;0;0;0;0;7;0;32161;0;0;0;0;8;0;31505;0;0;0;0;9;0;17018;0;0;0;0
16.10.19;22:20:00;1;296;8177;0;2;0;22943;0;0;0;0;3;0;14565;0;0;0;0;4;0;20278;0;0;0;0;5;0;47280;2;0;0;0;0;0;6;0;36555;2;0;0;0;0;0;7;0;32161;0;0;0;0;8;0;31505;0;0;0;0;9;0;17018;0;0;0;0
16.10.19;22:15:00;1;337;8152;0;2;0;22943;0;0;0;0;3;0;14565;0;0;0;0;4;0;20278;0;0;0;0;5;0;47280;2;0;0;0;0;0;6;0;36555;2;0;0;0;0;0;7;0;32161;0;0;0;0;8;0;31505;0;0;0;0;9;0;17018;0;0;0;0
16.10.19;22:10:00;1;314;8123;0;2;0;22943;0;0;0;0;3;0;14565;0;0;0;0;4;0;20278;0;0;0;0;5;0;47280;2;0;0;0;0;0;6;0;36555;2;0;0;0;0;0;7;0;32161;0;0;0;0;8;0;31505;0;0;0;0;9;0;17018;0;0;0;0
16.10.19;22:05:00;1;272;8098;0;2;0;22943;0;0;0;0;3;0;14565;0;0;0;0;4;0;20278;0;0;0;0;5;0;47280;2;0;0;0;0;0;6;0;36555;2;0;0;0;0;0;7;0;32161;0;0;0;0;8;0;31505;0;0;0;0;9;0;17018;0;0;0;0
16.10.19;22:00:00;1;649;8075;0;2;0;22943;0;0;0;0;3;0;14565;0;0;0;0;4;0;20278;0;0;0;0;5;0;47280;2;0;0;0;0;0;6;0;36555;2;0;0;0;0;0;7;0;32161;0;0;0;0;8;0;31505;0;0;0;0;9;0;17018;0;0;0;0
16.10.19;21:55:00;1;284;7995;0;2;0;22943;0;0;0;0;3;0;14565;0;0;0;0;4;0;20278;0;0;0;0;5;0;47280;2;0;0;0;0;0;6;0;36555;2;0;0;0;0;0;7;0;32161;0;0;0;0;8;0;31505;0;0;0;0;9;0;17018;0;0;0;0
16.10.19;21:50:00;1;334;7971;0;2;0;22943;0;0;0;0;3;0;14565;0;0;0;0;4;0;20278;0;0;0;0;5;0;47280;2;0;0;0;0;0;6;0;36555;2;0;0;0;0;0;7;0;32161;0;0;0;0;8;0;31505;0;0;0;0;9;0;17018;0;0;0;0
16.10.19;21:45:00;1;533;7941;0;2;0;22943;0;0;0;0;3;0;14565;0;0;0;0;4;0;20278;0;0;0;0;5;0;47280;2;0;0;0;0;0;6;0;36555;2;0;0;0;0;0;7;0;32161;0;0;0;0;8;0;31505;0;0;0;0;9;0;17018;0;0;0;0
16.10.19;21:40:00;1;609;7897;0;2;0;22943;0;0;0;0;3;0;14565;0;0;0;0;4;0;20278;0;0;0;0;5;0;47280;2;0;0;0;0;0;6;0;36555;2;0;0;0;0;0;7;0;32161;0;0;0;0;8;0;31505;0;0;0;0;9;0;17018;0;0;0;0
16.10.19;21:35:00;1;617;7845;0;2;0;22943;0;0;0;0;3;0;14565;0;0;0;0;4;0;20278;0;0;0;0;5;0;47280;2;0;0;0;0;0;6;0;36555;2;0;0;0;0;0;7;0;32161;0;0;0;0;8;0;31505;0;0;0;0;9;0;17018;0;0;0;0
16.10.19;21:30:00;1;571;7794;0;2;0;22943;0;0;0;0;3;0;14565;0;0;0;0;4;0;20278;0;0;0;0;5;0;47280;2;0;0;0;0;0;6;0;36555;2;0;0;0;0;0;7;0;32161;0;0;0;0;8;0;31505;0;0;0;0;9;0;17018;0;0;0;0
16.10.19;21:25:00;1;554;7746;0;2;0;22943;0;0;0;0;3;0;14565;0;0;0;0;4;0;20278;0;0;0;0;5;0;47280;2;0;0;0;0;0;6;0;36555;2;0;0;0;0;0;7;0;32161;0;0;0;0;8;0;31505;0;0;0;0;9;0;17018;0;0;0;0
16.10.19;21:20:00;1;531;7700;0;2;0;22943;0;0;0;0;3;0;14565;0;0;0;0;4;0;20278;0;0;0;0;5;0;47280;2;0;0;0;0;0;6;0;36555;2;0;0;0;0;0;7;0;32161;0;0;0;0;8;0;31505;0;0;0;0;9;0;17018;0;0;0;0
16.10.19;21:15:00;1;476;7655;0;2;0;22943;0;0;0;0;3;0;14565;0;0;0;0;4;0;20278;0;0;0;0;5;0;47280;2;0;0;0;0;0;6;0;36555;2;0;0;0;0;0;7;0;32161;0;0;0;0;8;0;31505;0;0;0;0;9;0;17018;0;0;0;0
16.10.19;21:10:00;1;514;7615;0;2;0;22943;0;0;0;0;3;0;14565;0;0;0;0;4;0;20278;0;0;0;0;5;0;47280;2;0;0;0;0;0;6;0;36555;2;0;0;0;0;0;7;0;32161;0;0;0;0;8;0;31505;0;0;0;0;9;0;17018;0;0;0;0
16.10.19;21:05:00;1;533;7571;0;2;0;22943;0;0;0;0;3;0;14565;0;0;0;0;4;0;20278;0;0;0;0;5;0;47280;2;0;0;0;0;0;6;0;36555;2;0;0;0;0;0;7;0;32161;0;0;0;0;8;0;31505;0;0;0;0;9;0;17018;0;0;0;0
16.10.19;21:00:00;1;551;7527;0;2;0;22943;0;0;0;0;3;0;14565;0;0;0;0;4;0;20278;0;0;0;0;5;0;47280;2;0;0;0;0;0;6;0;36555;2;0;0;0;0;0;7;0;32161;0;0;0;0;8;0;31505;0;0;0;0;9;0;17018;0;0;0;0
16.10.19;20:55:00;1;524;7481;0;2;0;22943;0;0;0;0;3;0;14565;0;0;0;0;4;0;20278;0;0;0;0;5;0;47280;2;0;0;0;0;0;6;0;36555;2;0;0;0;0;0;7;0;32161;0;0;0;0;8;0;31505;0;0;0;0;9;0;17018;0;0;0;0
16.10.19;20:50:00;1;549;7437;0;2;0;22943;0;0;0;0;3;0;14565;0;0;0;0;4;0;20278;0;0;0;0;5;0;47280;2;0;0;0;0;0;6;0;36555;2;0;0;0;0;0;7;0;32161;0;0;0;0;8;0;31505;0;0;0;0;9;0;17018;0;0;0;0
16.10.19;20:45:00;1;551;7391;0;2;0;22943;0;0;0;0;3;0;14565;0;0;0;0;4;0;20278;0;0;0;0;5;0;47280;2;0;0;0;0;0;6;0;36555;2;0;0;0;0;0;7;0;32161;0;0;0;0;8;0;31505;0;0;0;0;9;0;17018;0;0;0;0
16.10.19;20:40:00;1;547;7345;0;2;0;22943;0;0;0;0;3;0;14565;0;0;0;0;4;0;20278;0;0;0;0;5;0;47280;2;0;0;0;0;0;6;0;36555;2;0;0;0;0;0;7;0;32161;0;0;0;0;8;0;31505;0;0;0;0;9;0;17018;0;0;0;0
16.10.19;20:35:00;1;508;7300;0;2;0;22943;0;0;0;0;3;0;14565;0;0;0;0;4;0;20278;0;0;0;0;5;0;47280;2;0;0;0;0;0;6;0;36555;2;0;0;0;0;0;7;0;32161;0;0;0;0;8;0;31505;0;0;0;0;9;0;17018;0;0;0;0
16.10.19;20:30:00;1;524;7258;0;2;0;22943;0;0;0;0;3;0;14565;0;0;0;0;4;0;20278;0;0;0;0;5;0;47280;2;0;0;0;0;0;6;0;36555;2;0;0;0;0;0;7;0;32161;0;0;0;0;8;0;31505;0;0;0;0;9;0;17018;0;0;0;0
16.10.19;20:25:00;1;463;7213;0;2;0;22943;0;0;0;0;3;0;14565;0;0;0;0;4;0;20278;0;0;0;0;5;0;47280;2;0;0;0;0;0;6;0;36555;2;0;0;0;0;0;7;0;32161;0;0;0;0;8;0;31505;0;0;0;0;9;0;17018;0;0;0;0
16.10.19;20:20:00;1;259;7177;0;2;0;22943;0;0;0;0;3;0;14565;0;0;0;0;4;0;20278;0;0;0;0;5;0;47280;2;0;0;0;0;0;6;0;36555;2;0;0;0;0;0;7;0;32161;0;0;0;0;8;0;31505;0;0;0;0;9;0;17018;0;0;0;0
16.10.19;20:15:00;1;246;7155;0;2;0;22943;0;0;0;0;3;0;14565;0;0;0;0;4;0;20278;0;0;0;0;5;0;47280;2;0;0;0;0;0;6;0;36555;2;0;0;0;0;0;7;0;32161;0;0;0;0;8;0;31505;0;0;0;0;9;0;17018;0;0;0;0
16.10.19;20:10:00;1;246;7134;0;2;0;22943;0;0;0;0;3;0;14565;0;0;0;0;4;0;20278;0;0;0;0;5;0;47280;2;0;0;0;0;0;6;0;36555;2;0;0;0;0;0;7;0;32161;0;0;0;0;8;0;31505;0;0;0;0;9;0;17018;0;0;0;0
16.10.19;20:05:00;1;287;7113;0;2;0;22943;0;0;0;0;3;0;14565;0;0;0;0;4;0;20278;0;0;0;0;5;0;47280;2;0;0;0;0;0;6;0;36555;2;0;0;0;0;0;7;0;32161;0;0;0;0;8;0;31505;0;0;0;0;9;0;17018;0;0;0;0
16.10.19;20:00:00;1;290;7090;0;2;0;22943;0;0;0;0;3;0;14565;0;0;0;0;4;0;20278;0;0;0;0;5;0;47280;2;0;0;0;0;0;6;0;36555;2;0;0;0;0;0;7;0;32161;0;0;0;0;8;0;31505;0;0;0;0;9;0;17018;0;0;0;0
16.10.19;19:55:00;1;307;7065;0;2;0;22943;0;0;0;0;3;0;14565;0;0;0;0;4;0;20278;0;0;0;0;5;0;47280;2;0;0;0;0;0;6;0;36555;2;0;0;0;0;0;7;0;32161;0;0;0;0;8;0;31505;0;0;0;0;9;0;17018;0;0;0;0
16.10.19;19:50:00;1;322;7039;0;2;0;22943;0;0;0;0;3;0;14565;0;0;0;0;4;0;20278;0;0;0;0;5;0;47280;2;0;0;0;0;0;6;0;36555;2;0;0;0;0;0;7;0;32161;0;0;0;0;8;0;31505;0;0;0;0;9;0;17018;0;0;0;0
16.10.19;19:45:00;1;253;7013;0;2;0;22943;0;0;0;0;3;0;14565;0;0;0;0;4;0;20278;0;0;0;0;5;0;47280;2;0;0;0;0;0;6;0;36555;2;0;0;0;0;0;7;0;32161;0;0;0;0;8;0;31505;0;0;0;0;9;0;17018;0;0;0;0
16.10.19;19:40:00;1;430;6991;0;2;0;22943;0;0;0;0;3;0;14565;0;0;0;0;4;0;20278;0;0;0;0;5;0;47280;2;0;0;0;0;0;6;0;36555;2;0;0;0;0;0;7;0;32161;0;0;0;0;8;0;31505;0;0;0;0;9;0;17018;0;0;0;0
16.10.19;19:35:00;1;1377;6916;0;2;0;22943;0;0;0;0;3;0;14565;0;0;0;0;4;0;20278;0;0;0;0;5;0;47280;2;0;0;0;0;0;6;0;36555;2;0;0;0;0;0;7;0;32161;0;0;0;0;8;0;31505;0;0;0;0;9;0;17018;0;0;0;0
16.10.19;19:30:00;1;1498;6799;0;2;0;22943;0;0;0;0;3;0;14565;0;0;0;0;4;0;20278;0;0;0;0;5;0;47280;2;0;0;0;0;0;6;0;36555;2;0;0;0;0;0;7;0;32161;0;0;0;0;8;0;31505;0;0;0;0;9;0;17018;0;0;0;0
16.10.19;19:25:00;1;1447;6686;0;2;0;22943;0;0;0;0;3;0;14565;0;0;0;0;4;0;20278;0;0;0;0;5;0;47280;2;0;0;0;0;0;6;0;36555;2;0;0;0;0;0;7;0;32161;0;0;0;0;8;0;31505;0;0;0;0;9;0;17018;0;0;0;0
16.10.19;19:20:00;1;1281;6559;0;2;0;22943;0;0;0;0;3;0;14565;0;0;0;0;4;0;20278;0;0;0;0;5;0;47280;2;0;0;0;0;0;6;0;36555;2;0;0;0;0;0;7;0;32161;0;0;0;0;8;0;31505;0;0;0;0;9;0;17018;0;0;0;0
16.10.19;19:15:00;1;1292;6433;0;2;0;22943;0;0;0;0;3;0;14565;0;0;0;0;4;0;20278;0;0;0;0;5;0;47280;2;0;0;0;0;0;6;0;36555;2;0;0;0;0;0;7;0;32161;0;0;0;0;8;0;31505;0;0;0;0;9;0;17018;0;0;0;0
16.10.19;19:10:00;1;1598;6297;0;2;0;22943;0;0;0;0;3;0;14565;0;0;0;0;4;0;20278;0;0;0;0;5;0;47280;2;0;0;0;0;0;6;0;36555;2;0;0;0;0;0;7;0;32161;0;0;0;0;8;0;31505;0;0;0;0;9;0;17018;0;0;0;0
16.10.19;19:05:00;1;2435;6101;0;2;0;22943;0;0;0;0;3;0;14565;0;0;0;0;4;0;20278;0;0;0;0;5;0;47280;2;0;0;0;0;0;6;0;36555;2;0;0;0;0;0;7;0;32161;0;0;0;0;8;0;31505;0;0;0;0;9;0;17018;0;0;0;0
16.10.19;19:00:00;1;2416;5897;0;2;0;22943;0;0;0;0;3;0;14565;0;0;0;0;4;0;20278;0;0;0;0;5;0;47280;2;0;0;0;0;0;6;0;36555;2;0;0;0;0;0;7;0;32161;0;0;0;0;8;0;31505;0;0;0;0;9;0;17018;0;0;0;0
16.10.19;18:55:00;1;2411;5695;0;2;0;22943;0;0;0;0;3;0;14565;0;0;0;0;4;0;20278;0;0;0;0;5;0;47280;2;0;0;0;0;0;6;0;36555;2;0;0;0;0;0;7;0;32161;0;0;0;0;8;0;31505;0;0;0;0;9;0;17018;0;0;0;0
16.10.19;18:50:00;1;1387;5497;0;2;0;22943;0;0;0;0;3;0;14565;0;0;0;0;4;0;20278;0;0;0;0;5;0;47280;2;0;0;0;0;0;6;0;36555;2;0;0;0;0;0;7;0;32161;0;0;0;0;8;0;31505;0;0;0;0;9;0;17018;0;0;0;0
16.10.19;18:45:00;1;347;5459;0;2;0;22943;0;0;0;0;3;0;14565;0;0;0;0;4;0;20278;0;0;0;0;5;0;47280;2;0;0;0;0;0;6;0;36555;2;0;0;0;0;0;7;0;32161;0;0;0;0;8;0;31505;0;0;0;0;9;0;17018;0;0;0;0
16.10.19;18:40:00;1;289;5435;0;2;0;22943;0;0;0;0;3;0;14565;0;0;132;14;4;0;20278;0;0;0;0;5;0;47280;2;0;0;0;0;0;6;0;36555;2;0;0;0;0;0;7;0;32161;0;0;0;0;8;0;31505;0;0;0;0;9;0;17018;0;0;0;0
16.10.19;18:35:00;1;311;5407;0;2;0;22943;6;0;320;29;3;0;14565;6;0;392;30;4;0;20278;2;0;98;27;5;0;47280;2;0;0;87;87;11;6;0;36555;1;1;0;29;45;6;7;0;32161;0;0;43;4;8;0;31505;0;0;42;4;9;0;17018;0;0;42;3
16.10.19;18:30:00;1;262;5386;0;2;0;22943;6;0;352;29;3;0;14565;4;5;406;30;4;0;20278;1;0;147;28;5;0;47280;23;0;0;346;345;35;6;0;36555;23;12;0;323;289;33;7;0;32161;6;0;293;29;8;0;31505;6;0;286;28;9;0;17018;6;0;290;23
16.10.19;18:25:00;1;643;5364;0;2;0;22943;6;0;379;30;3;2;14565;3;7;446;31;4;0;20278;1;0;205;29;5;0;47280;26;0;0;400;587;35;6;0;36555;23;10;0;241;480;34;7;0;32161;6;0;401;29;8;0;31505;6;0;391;29;9;0;17018;6;1;403;24
16.10.19;18:20:00;1;1410;5311;0;2;0;22943;6;0;387;31;3;0;14565;6;0;501;31;4;0;20278;3;0;206;29;5;0;47280;1;0;0;410;649;36;6;0;36555;23;4;0;209;555;34;7;0;32161;6;5;395;30;8;0;31505;6;0;431;29;9;0;17018;6;0;460;24
16.10.19;18:15:00;1;695;5209;0;2;11;22943;6;23;384;32;3;1;14565;6;7;498;32;4;0;20278;3;0;200;30;5;35;47279;1;0;1;411;662;36;6;7;36555;23;13;1;495;520;35;7;2;32161;6;4;449;31;8;0;31505;6;4;448;30;9;1;17018;6;3;486;25
16.10.19;18:10:00;1;506;5164;0;2;63;22942;4;100;358;33;3;0;14565;6;0;531;32;4;13;20278;3;14;199;30;5;82;47276;4;0;9;401;652;37;6;53;36554;4;53;20;435;267;36;7;9;32160;4;21;419;31;8;0;31505;6;0;477;30;9;0;17018;6;13;451;25
16.10.19;18:05:00;1;412;5127;0;2;335;22936;4;379;352;34;3;191;14565;4;230;392;33;4;94;20277;3;99;208;31;5;138;47267;4;15;36;401;651;37;6;81;36549;4;58;29;435;266;36;7;38;32160;4;79;380;32;8;34;31505;6;60;400;31;9;1;17018;6;5;519;26
16.10.19;18:00:00;1;523;5083;0;2;414;22909;4;462;358;35;3;241;14549;4;284;391;34;4;213;20269;5;222;224;31;5;171;47256;4;33;55;401;651;38;6;105;36542;4;90;47;435;266;36;7;76;32157;4;105;366;32;8;50;31502;4;94;412;31;9;8;17017;3;22;479;26
16.10.19;17:55:00;1;218;5036;0;2;576;22873;4;629;354;36;3;339;14529;4;384;415;34;4;371;20250;5;386;233;31;5;239;47240;4;74;81;401;651;38;6;144;36533;4;120;63;435;266;37;7;181;32150;4;214;352;33;8;93;31498;4;127;381;32;9;5;17017;6;10;531;26
16.10.19;17:50:00;1;176;5020;0;2;667;22825;4;722;355;37;3;398;14500;4;442;412;35;4;420;20219;5;438;207;32;5;258;47220;4;88;92;401;651;38;6;177;36520;4;91;50;435;267;37;7;331;32135;4;371;354;33;8;145;31490;4;170;360;32;9;0;17017;6;0;560;27
16.10.19;17:45:00;1;176;5005;0;2;774;22770;4;835;354;38;3;498;14467;4;549;412;35;4;623;20184;5;649;204;32;5;334;47197;4;131;116;401;651;38;6;346;36503;4;161;157;543;516;37;7;698;32106;4;745;367;34;8;384;31477;4;426;376;33;9;30;17017;6;47;425;28
16.10.19;17:40:00;1;194;4990;0;2;842;22705;4;908;354;39;3;546;14425;4;599;404;36;4;708;20132;5;737;212;33;5;401;47169;4;195;140;293;651;39;6;420;36473;4;215;218;567;541;37;7;919;32050;4;986;401;34;8;470;31446;4;514;356;33;9;49;17014;4;83;398;29
16.10.19;17:35:00;1;236;4973;0;2;1029;22635;4;1101;362;40;3;600;14380;4;656;424;36;4;760;20073;5;792;203;33;5;693;47127;4;345;269;401;541;39;6;565;36434;4;315;300;571;551;37;7;1293;31970;4;1372;446;35;8;600;31405;4;652;400;34;9;72;17010;4;102;474;29
16.10.19;17:30:00;1;272;4953;0;2;1145;22550;4;1219;350;41;3;705;14330;4;764;423;37;4;780;20009;5;812;199;33;5;814;47068;4;395;319;402;603;39;6;646;36386;4;304;311;575;556;37;7;1480;31863;4;1564;469;35;8;774;31355;4;826;460;34;9;75;17004;4;109;466;30
16.10.19;17:25:00;1;218;4929;0;2;1373;22454;4;1455;352;42;3;835;14271;4;899;414;37;4;919;19943;5;957;222;33;5;1089;46994;4;537;452;407;632;39;6;831;36328;4;426;419;587;555;38;7;1720;31738;4;1819;467;35;8;1057;31290;4;1116;361;35;9;93;16998;4;130;496;30
16.10.19;17:20:00;1;176;4911;0;2;1455;22339;4;1542;354;42;3;883;14201;4;948;407;38;4;998;19867;5;1040;226;34;5;1223;46902;4;607;512;411;658;40;6;928;36258;4;494;471;583;552;38;7;1846;31595;4;1956;473;36;8;1358;31202;4;1431;372;35;9;96;16990;4;143;513;31
16.10.19;17:15:00;1;252;4896;0;2;1636;22217;4;1732;362;43;3;965;14127;4;1032;415;38;4;1129;19783;5;1176;222;34;5;1462;46794;4;730;619;410;660;40;6;1126;36175;4;626;604;579;559;38;7;1732;31408;0;1821;386;30;8;1776;31088;4;1868;413;36;9;111;16982;4;143;430;32
16.10.19;17:10:00;1;177;4874;0;2;1689;22081;4;1786;366;44;3;1008;14047;4;1078;423;38;4;1135;19689;5;1182;214;34;5;1596;46670;4;794;676;414;653;40;6;1217;36081;4;591;569;576;557;38;7;2164;31272;4;2281;465;37;8;1962;30942;4;2067;432;36;9;118;16973;4;144;362;32
16.10.19;17:05:00;1;238;4860;0;2;1881;21938;4;1995;380;45;3;1064;13962;4;1134;415;39;4;1267;19594;5;1319;202;34;5;1858;46531;4;957;793;413;666;41;6;1422;35974;4;732;705;584;558;38;7;2373;31089;4;2493;457;37;8;2252;30775;4;2367;443;37;9;411;16963;4;451;358;34
16.10.19;17:00:00;1;239;4840;0;2;1998;21782;4;2114;386;46;3;1093;13874;4;1166;419;39;4;1311;19488;5;1366;212;35;5;2006;46374;4;1052;865;411;665;41;6;1534;35855;4;779;749;591;561;38;7;2487;30892;4;2615;465;37;8;2399;30587;4;2526;453;37;9;742;16930;4;790;354;35
16.10.19;16:55:00;1;282;4817;0;2;2134;21615;4;2254;378;47;3;1180;13783;4;1254;413;39;4;1342;19379;5;1398;223;35;5;2289;46200;4;1188;986;410;665;41;6;1742;35721;4;910;872;581;558;39;7;2688;30683;4;2820;465;38;8;2633;30386;4;2769;459;38;9;1105;16866;4;1174;394;36
16.10.19;16:50:00;1;301;4794;0;2;2207;21438;4;2331;378;47;3;1199;13685;4;1274;419;40;4;1337;19267;5;1393;212;35;5;2431;46009;4;1264;1050;413;663;41;6;1845;35575;4;998;948;584;558;39;7;2768;30459;4;2915;457;38;8;2721;30167;4;2859;448;38;9;1221;16775;4;1292;418;37
16.10.19;16:45:00;1;417;4765;0;2;2342;21254;4;2474;382;48;3;1284;13585;4;1361;417;40;4;1374;19157;5;1431;203;35;5;2709;45800;4;1427;1177;416;663;42;6;2075;35416;4;1045;998;581;555;39;7;2974;30228;4;3119;459;39;8;2917;29939;4;3070;455;38;9;1425;16672;4;1513;455;38
16.10.19;16:40:00;1;418;4731;0;2;2431;21058;4;2565;374;49;3;1312;13478;4;1387;419;40;4;1341;19042;5;1397;201;35;5;2864;45572;4;1530;1237;410;669;42;6;2171;35242;4;1155;1114;578;549;39;7;3049;29980;4;3206;457;39;8;3005;29696;4;3150;452;39;9;1523;16554;4;1616;470;39
16.10.19;16:35:00;1;841;4694;0;2;2555;20855;4;2695;371;49;3;1412;13369;4;1492;408;41;4;1302;18931;5;1356;200;36;5;3132;45328;4;1660;1364;409;657;42;6;2381;35056;4;1230;1190;579;552;39;7;2691;29725;4;2826;380;32;8;3168;29446;4;3326;450;39;9;828;16425;4;878;247;19
16.10.19;16:30:00;1;688;4639;0;2;2662;20642;4;2808;370;50;3;1471;13251;4;1552;411;41;4;1301;18823;5;1356;199;36;5;3278;45066;4;1730;1432;411;652;42;6;2500;34856;4;1328;1277;580;551;39;7;3321;29456;4;3485;457;39;8;3265;29182;4;3435;448;39;9;878;16287;4;928;245;20
16.10.19;16:25:00;1;466;4570;0;2;2831;20421;4;2990;383;51;3;1538;13128;4;1620;403;41;4;1339;18714;5;1395;203;36;5;3560;44787;4;1895;1558;408;660;43;6;2710;34643;4;1386;1322;576;554;39;7;3486;29179;4;3658;453;40;8;3428;28909;4;3597;453;39;9;1881;16141;4;1992;498;40
16.10.19;16:20:00;1;759;4525;0;2;2894;20185;4;3055;387;51;3;1575;13000;4;1661;403;42;4;1419;18603;5;1478;201;37;5;3705;44489;4;1969;1629;405;659;43;6;2823;34417;4;1423;1367;574;552;40;7;3566;28889;4;3753;457;40;8;3514;28624;4;3687;457;40;9;1927;15983;4;2042;501;40
16.10.19;16:15:00;1;455;4472;0;2;3039;19944;4;3212;386;52;3;1643;12869;4;1730;405;42;4;1491;18485;5;1553;204;37;5;3995;44173;4;2142;1757;406;657;43;6;3045;34176;4;1597;1536;574;554;40;7;3742;28592;4;3933;458;40;8;3678;28330;4;3862;450;40;9;2023;15822;4;2141;501;41
16.10.19;16:10:00;1;452;4434;0;2;3090;19690;4;3273;394;52;3;1671;12732;4;1755;408;42;4;1551;18361;5;1615;202;38;5;4126;43839;4;2219;1818;408;655;43;6;3145;33921;4;1624;1547;574;555;40;7;3813;28282;4;4011;453;40;8;3760;28025;4;3947;453;40;9;2062;15655;4;2187;505;41
16.10.19;16:05:00;1;453;4361;0;2;3207;19432;4;3396;385;52;3;1724;12592;4;1819;409;43;4;1633;18232;5;1700;218;38;5;4406;43488;4;2378;1942;406;658;43;6;3362;33653;4;1763;1684;575;555;40;7;3970;27961;4;4170;455;40;8;3245;27709;4;3411;372;33;9;2147;15482;4;2275;495;41
16.10.19;16:00:00;1;453;4323;0;2;3270;19164;4;3458;387;52;3;1757;12449;4;1849;407;43;4;1703;18096;5;1774;226;39;5;4536;43120;4;2463;1993;409;647;43;6;3458;33371;4;1795;1736;574;554;40;7;4016;27630;4;4213;449;41;8;3970;27387;4;4158;440;40;9;2178;15304;4;2316;502;42
16.10.19;15:55:00;1;498;4283;0;2;3349;18892;4;3537;382;53;3;1835;12302;4;1932;415;43;4;1932;17953;5;2012;231;40;5;4788;42735;4;2585;2111;406;655;44;6;3664;33079;4;1924;1847;575;550;40;7;4176;27295;4;4383;450;41;8;4095;27052;4;4305;445;40;9;2263;15123;4;2394;492;42
16.10.19;15:50:00;1;495;4242;0;2;3377;18612;4;3570;386;53;3;1851;12149;4;1950;419;43;4;2046;17793;5;2132;233;40;5;4901;42336;4;2652;2169;408;647;44;6;3736;32772;4;1909;1855;573;551;40;7;4223;26946;4;4433;441;41;8;4148;26710;4;4349;440;41;9;2295;14933;4;2426;501;42
16.10.19;15:45:00;1;546;4197;0;2;3467;18330;4;3665;381;53;3;1909;11994;4;2006;413;44;4;2261;17621;5;2355;234;41;5;5168;41921;4;2799;2280;404;655;44;6;3939;32455;4;2054;1983;568;552;40;7;4353;26595;4;4571;445;41;8;4270;26364;4;4489;446;40;9;2362;14741;4;2498;496;42
16.10.19;15:40:00;1;497;4152;0;2;3521;18041;4;3719;382;53;3;1934;11835;4;2033;416;44;4;2399;17433;5;2499;231;41;5;5314;41489;4;2871;2348;407;657;44;6;4059;32126;4;2127;2055;572;551;40;7;4421;26232;4;4645;445;41;8;4371;26010;4;4574;445;41;9;2407;14544;4;2546;485;42
16.10.19;15:35:00;1;503;4110;0;2;3582;17747;4;3779;385;52;3;2018;11674;4;2121;419;44;4;2522;17232;5;2627;231;41;5;5533;41041;4;3016;2459;401;643;44;6;4234;31784;4;2222;2124;571;552;40;7;4557;25863;4;4786;445;41;8;4484;25644;4;4701;442;41;9;2475;14343;4;2615;490;42
16.10.19;15:30:00;1;503;4068;0;2;3631;17449;4;3832;386;52;3;2040;11506;4;2147;419;44;4;2617;17023;5;2726;236;41;5;5656;40579;4;3072;2517;399;651;44;6;4341;31431;4;2284;2171;574;556;40;7;4613;25483;4;4833;441;41;8;4525;25274;4;4746;432;40;9;2507;14139;4;2648;493;42
16.10.19;15:25:00;1;504;4026;0;2;3826;17148;4;4032;382;52;3;2177;11335;4;2284;431;44;4;2882;16804;5;3002;235;42;5;6059;40096;4;3306;2694;403;662;43;6;4674;31061;4;2456;2365;576;561;40;7;4895;25102;4;5138;454;41;8;4817;24897;4;5053;448;40;9;2665;13930;4;2817;497;42
16.10.19;15:20:00;1;505;3984;0;2;3841;16829;4;4054;386;51;3;2223;11154;4;2339;451;44;4;2939;16564;5;3061;236;41;5;6154;39591;4;3337;2740;409;660;44;6;4735;30671;4;2434;2332;580;559;40;7;4983;24692;4;5221;449;40;8;4887;24493;4;5131;457;40;9;2708;13706;4;2860;498;42
16.10.19;15:15:00;1;478;3943;0;2;2741;16507;4;2900;384;49;3;1514;10968;4;1602;448;44;4;1759;16317;5;1832;233;41;5;3572;39069;4;1913;1575;412;656;44;6;2918;30271;4;1490;1495;539;569;40;7;3157;24279;4;3319;457;41;8;3337;24089;4;3507;445;40;9;1974;13482;4;2087;501;40
16.10.19;15:10:00;1;497;3902;0;2;3193;16273;4;3358;383;50;3;2041;10838;4;2157;475;44;4;2144;16165;5;2234;236;42;5;2624;38785;4;1325;1169;399;656;44;6;2037;30051;4;1080;1056;563;583;40;7;1539;24002;4;1630;437;41;8;1189;23802;4;1264;434;41;9;579;13312;4;638;490;40
16.10.19;15:05:00;1;513;3860;0;2;1170;16038;4;1257;384;48;3;787;10683;4;854;479;43;4;1022;15997;5;1064;227;42;5;1956;38350;4;995;864;386;628;45;6;1606;29721;4;838;812;544;523;41;7;1701;23849;4;1811;438;42;8;1630;23692;4;1731;433;41;9;905;13260;4;980;493;41
16.10.19;15:00:00;1;571;3817;0;2;640;15930;4;704;375;51;3;397;10610;4;452;487;45;4;501;15901;5;522;219;44;5;1153;38242;4;561;487;386;610;45;6;884;29629;4;436;409;552;529;41;7;1069;23691;4;1152;426;43;8;858;23542;4;921;415;42;9;444;13178;4;492;482;42
16.10.19;14:55:00;1;276;3772;0;2;3689;15876;4;3899;383;53;3;2398;10576;4;2530;494;46;4;3287;15858;5;3424;232;44;5;6579;37952;4;3600;2925;398;654;45;6;5071;29409;4;2634;2525;581;559;41;7;4802;23613;4;5042;447;43;8;4493;23473;4;4722;444;43;9;2481;13142;4;2618;498;44
16.10.19;14:50:00;1;308;3748;0;2;2603;15584;4;2747;370;51;3;1731;10387;4;1838;502;45;4;2573;15598;5;2680;230;44;5;5584;37383;4;3082;2440;404;627;46;6;3994;28983;4;2092;1952;571;530;41;7;5696;23213;4;6000;449;43;8;5490;23098;4;5757;432;43;9;3097;12934;4;3274;501;43